Terminal Aerodrome Forecast
Issued by NWS

Home | Current Version | Previous Version | Text Only | Print | Product List | Glossary On
Versions: 1 2 3 4 5 6 7 8 9 10 11 12 13 14 15 16
000
FTUS46 KSGX 032321
TAFONT
TAF
KONT 032321Z 0400/0506 26012G20KT P6SM SCT200
     FM040400 25005KT P6SM BKN200
     FM041200 VRB04KT 5SM BR BKN010
     FM041600 VRB03KT 6SM HZ SCT012 BKN200
     FM042000 25012G20KT P6SM BKN200
     FM050400 VRB05KT P6SM SCT200=

USA.gov is the U.S. government's official web portal to all federal, state and local government web resources and services.